Home   Weather   Ras al-Khaimah   Past weeks

Flag for United Arab Emirates Past Weather in Ras al-Khaimah, Ras al-Khaimah, United Arab Emirates — Yesterday and Last 2 Weeks

Now
72 °F

Passing clouds.


Feels Like: 77 °F
Forecast: 55 / 80 °F
Wind: 3 mph from Southwest

Location: Ras Al Khaimah International Airport

Current Time: Feb 22, 2017 at 12:49:58 pm

Latest Report: Feb 22, 2017 at 12:00 pm


Visibility: N/A

Pressure: 30.07 "Hg

Humidity: 53%

Dew Point: 54 °F

Location of Ras al-KhaimahLocation

Past Weather in Ras al-Khaimah — Graph

°F

Ras al-Khaimah Temperature Yesterday

Maximum temperature yesterday: 70 °F (at 3:00 pm)
Minimum temperature yesterday: 61 °F (at 3:00 am)
Average temperature yesterday: 64 °F

High & Low Weather Summary for the Past Weeks

 TemperatureHumidityPressure
High97 °F (Feb 11, 3:00 pm)100% (Feb 9, 2:00 am)30.30 "Hg (Feb 9, 2:00 am)
Low50 °F (Feb 8, 5:00 am)20% (Feb 9, 12:00 pm)29.83 "Hg (Feb 17, 1:00 pm)
Average68 °F68%30.06 "Hg
* Reported Feb 7 11:00 am — Feb 22 11:00 am, Ras al-Khaimah, Weather by CustomWeather, © 2017

Note: Actual official high and low records may vary slightly from our data, if they occured in-between our weather recording intervals... More about our weather records

Advertising

Ras al-Khaimah Weather History for the Previous 24 Hours

Scroll right to see more
 ConditionsComfort  
Time TempWeatherWind HumidityBarometerVisibility
11:00 am
Wed, Feb 22
70 °FScattered clouds.5 mph60%30.09 "HgN/A
10:00 am68 °FSunny.6 mph69%30.09 "Hg10 mi
9:00 am64 °FClear.9 mph78%30.09 "Hg4 mi
8:00 am59 °FFog.6 mph94%30.07 "Hg3 mi
7:00 am55 °FFog.5 mph94%30.04 "Hg2 mi
6:00 am57 °FFog.5 mph88%30.04 "Hg2 mi
5:00 am57 °FFog.5 mph94%30.01 "Hg2 mi
4:00 am57 °FHaze.3 mph94%30.01 "Hg3 mi
3:00 am59 °FPassing clouds.3 mph88%30.01 "Hg4 mi
2:00 am59 °FPassing clouds.2 mph88%30.01 "Hg4 mi
1:00 am61 °FPassing clouds.5 mph83%30.04 "Hg4 mi
12:00 am61 °FPassing clouds.6 mph88%30.04 "Hg4 mi
11:00 pm
Tue, Feb 21
61 °FPassing clouds.6 mph88%30.04 "Hg5 mi
10:00 pm61 °FPassing clouds.6 mph83%30.04 "Hg5 mi
9:00 pm63 °FPassing clouds.3 mph77%30.04 "HgN/A
8:00 pm64 °FPassing clouds.3 mph73%30.04 "HgN/A
7:00 pm66 °FPassing clouds.5 mph68%30.01 "HgN/A
6:00 pm68 °FPassing clouds.8 mph64%29.98 "HgN/A
5:00 pm70 °FScattered clouds.10 mph60%29.98 "HgN/A
4:00 pm70 °FScattered clouds.8 mph60%29.95 "HgN/A
3:00 pm70 °FPassing clouds.7 mph60%29.98 "Hg5 mi
2:00 pm68 °FPassing clouds.7 mph69%30.01 "Hg5 mi
1:00 pm68 °FPassing clouds.3 mph64%30.04 "Hg5 mi
12:00 pm66 °FPassing clouds.8 mph68%30.09 "Hg5 mi
Weather by CustomWeather, © 2017

See weather overviewHow to use our weather pages